Location: Hopewell Observatory
(38.8698°N, 77.6988°W)
Time: 01:09:02
(UTC-04:00)

BREEZE-M DEB (TANK) - Pass Details

Date: 26 May 2018
Orbit: 279 x 15523 km, 49.6° (Epoch: 18 June)

Event Time Altitude Azimuth Distance (km) Brightness Sun altitude
Rises 21:02:19 0° 304° (WNW) 3,624 9.3 -6.9°
Reaches altitude 10° 21:05:49 10° 303° (WNW) 1,821 6.8 -7.4°
Maximum altitude 21:09:04 73° 219° (SW) 347 1.3 -8.0°
Enters shadow 21:10:49 12° 133° (SE) 989 3.0 -8.2°
